Greenville, SC (29615)

4:07 PM EDT on March 28, 2017 (GMT -0400)
Downington Court | | Change Station

Elev 990 ft 34.86 °N, 82.30 °W | Updated 7 minutes ago

Mostly Cloudy
Mostly Cloudy
77.7 °F
Feels Like 79 °F
N
0.6
Wind Variable Wind from West
Gusts 1.9 mph

Today
High -- | Low -- °F
--% Chance of Precip.
Yesterday
High -- | Low -- °F
Precip. -- in
Pressure 29.88 in
Visibility 10.0 miles
Clouds Scattered Clouds 7000 ft
Mostly Cloudy 8000 ft
Heat Index 79 °F
Dew Point 61 °F
Humidity 56%
Rainfall 0.00 in
Snow Depth Not available.
7:21 AM 7:47 PM
New Moon, 1% visible
METAR KGMU 281953Z 26013G21KT 10SM SCT070 BKN080 28/10 A2990 RMK AO2 SLP117 T02780100
Pressure 29.88 in
Visibility 10.0 miles
Clouds Scattered Clouds 7000 ft
Mostly Cloudy 8000 ft
Heat Index 79 °F
Dew Point 61 °F
Humidity 56%
Rainfall 0.00 in
Snow Depth Not available.
7:21 AM 7:47 PM
New Moon, 1% visible
METAR KGMU 281953Z 26013G21KT 10SM SCT070 BKN080 28/10 A2990 RMK AO2 SLP117 T02780100

Get Severe Weather Alerts

Thanks for signing up!

Be on the lookout for a verification email in your inbox.

You'll start receiving the daily forecast at 8 AM.

×

10-Day Weather Forecast

Almanac

Astronomy

Mar. 28, 2017 Rise Set
Actual Time
Civil Twilight
Nautical Twilight
Astronomical Twilight
Moon
Length of Visible Light
Length of Day
Tomorrow will be .
, % of the Moon is Illuminated

Today's Extremes

State Highs State Lows

Community

WunderPhotos

Upload Photos

1,962,540 photos uploaded!

WunderBlog® & News

Nearby

Air Quality

  Air Quality AQ Index Pollutant
Not available.

Snow Depth

Station Depth Elevation

Earthquake Activity

City Distance Mag. Time & Date
Minimum magnitude displayed is 2.5.

Earthquake Activity

City Distance Mag. Time & Date
Minimum magnitude displayed is 2.5.

Coastal Water Temperatures

Place Temperature

Stations

Nearby Weather Stations

Station Location Temp. Windchill Dew Point Humidity Wind Precip. Elev Updated Type
                   

Watches & Warnings

There are currently no watches in effect.